CW4621 Weather Reports


Display with metric or nautical units.
time (UTC)temp
F
wind
direction
speed
MPH
gust
MPH
rain 1hr
in
rain 24hr
in
rain mn
in
humidity
%
barometer
mb
20260506062104 66 305 3.0 8.0 0.00 0.00 0.00 69 1009.7
20260506061105 66 137 3.0 7.0 0.00 0.00 0.00 69 1009.6
20260506060604 66 89 1.0 9.0 0.00 0.00 0.00 68 1009.6
20260506051104 67 108 3.0 9.0 0.00 0.00 0.00 67 1010.1
20260506050604 67 146 3.0 12.0 0.00 0.00 0.00 67 1010.1
20260506050104 67 111 4.0 7.0 0.00 0.00 0.00 67 1010.1
20260506045105 67 130 2.0 7.0 0.00 0.00 0.00 67 1010.2
20260506044604 67 144 2.0 8.0 0.00 0.00 0.00 67 1010.2
20260506043604 67 157 3.0 8.0 0.00 0.00 0.00 66 1010.2
20260506042605 67 140 2.0 6.0 0.00 0.00 0.00 66 1010.2
20260506042105 67 133 2.0 7.0 0.00 0.00 0.00 66 1010.2
20260506041605 67 156 3.0 8.0 0.00 0.00 0.00 66 1010.2
20260506041104 67 137 2.0 7.0 0.00 0.00 0.00 65 1010.1
20260506040104 68 144 5.0 13.0 0.00 0.00 0.00 65 1010.1
20260506035605 68 125 4.0 12.0 0.00 0.00 0.00 65 1010.2
20260506035105 67 129 3.0 8.0 0.00 0.00 0.00 65 1010.2
20260506034605 68 138 3.0 9.0 0.00 0.00 0.00 64 1010.1
20260506034104 68 126 2.0 9.0 0.00 0.00 0.00 64 1010.1
20260506033604 68 107 4.0 12.0 0.00 0.00 0.00 64 1010.1
20260506033104 68 151 3.0 10.0 0.00 0.00 0.00 64 1010.1
20260506032605 68 137 1.0 14.0 0.00 0.00 0.00 63 1010.1
20260506031605 68 132 4.0 13.0 0.00 0.00 0.00 63 1010.1
20260506031105 68 111 5.0 10.0 0.00 0.00 0.00 63 1010.1
20260506030605 68 101 3.0 12.0 0.00 0.00 0.00 62 1010.2
20260506030105 68 142 5.0 10.0 0.00 0.00 0.00 62 1010.2
20260506025604 68 119 3.0 7.0 0.00 0.00 0.00 62 1010.2
20260506025105 69 121 2.0 7.0 0.00 0.00 0.00 62 1010.2
20260506024605 69 110 2.0 12.0 0.00 0.00 0.00 61 1010.3
20260506024105 69 124 3.0 12.0 0.00 0.00 0.00 61 1010.3
20260506023605 69 125 4.0 13.0 0.00 0.00 0.00 61 1010.2
20260506023105 69 98 2.0 8.0 0.00 0.00 0.00 60 1010.3
20260506022106 69 117 3.0 10.0 0.00 0.00 0.00 59 1010.3
20260506021605 70 122 2.0 10.0 0.00 0.00 0.00 59 1010.2
20260506020605 70 98 4.0 12.0 0.00 0.00 0.00 58 1010.2
20260506020105 70 122 3.0 9.0 0.00 0.00 0.00 57 1010.2
20260506015605 70 136 5.0 12.0 0.00 0.00 0.00 57 1010.2
20260506015105 70 165 4.0 12.0 0.00 0.00 0.00 56 1010.1
20260506014605 71 126 3.0 12.0 0.00 0.00 0.00 56 1010.1
20260506014105 71 133 3.0 13.0 0.00 0.00 0.00 56 1010.0
20260506013605 71 130 3.0 10.0 0.00 0.00 0.00 56 1010.0
20260506013105 71 114 5.0 9.0 0.00 0.00 0.00 55 1010.0
20260506012604 71 167 2.0 12.0 0.00 0.00 0.00 55 1009.9
20260506012104 71 129 2.0 12.0 0.00 0.00 0.00 55 1009.9
20260506011606 71 137 4.0 9.0 0.00 0.00 0.00 55 1009.8
20260506011112 71 105 3.0 8.0 0.00 0.00 0.00 55 1009.7
20260506010106 71 122 4.0 10.0 0.00 0.00 0.00 55 1009.7
20260506005605 71 114 3.0 9.0 0.00 0.00 0.00 55 1009.6
20260506004605 72 124 5.0 12.0 0.00 0.00 0.00 55 1009.6
20260506004105 72 125 4.0 10.0 0.00 0.00 0.00 55 1009.6
20260506003605 72 146 5.0 14.0 0.00 0.00 0.00 55 1009.5
20260506003105 72 123 3.0 9.0 0.00 0.00 0.00 55 1009.4
20260506001605 73 109 4.0 12.0 0.00 0.00 0.00 54 1009.3
20260506001105 73 134 3.0 8.0 0.00 0.00 0.00 53 1009.3
20260506000605 74 55 5.0 12.0 0.00 0.00 0.00 51 1009.2
20260506000105 74 130 1.0 10.0 0.00 0.00 0.00 50 1009.2
20260505235604 74 140 2.0 8.0 0.00 0.00 0.00 49 1009.2
20260505234105 76 159 2.0 5.0 0.00 0.00 0.00 46 1009.0
20260505233605 76 120 2.0 5.0 0.00 0.00 0.00 45 1009.0
20260505233105 76 132 3.0 8.0 0.00 0.00 0.00 44 1008.9
20260505232605 77 132 3.0 12.0 0.00 0.00 0.00 43 1008.8
20260505232105 77 136 5.0 12.0 0.00 0.00 0.00 42 1008.7
20260505231605 78 130 5.0 9.0 0.00 0.00 0.00 41 1008.7
20260505231105 79 95 3.0 14.0 0.00 0.00 0.00 39 1008.7
20260505230605 79 119 3.0 7.0 0.00 0.00 0.00 38 1008.6
20260505230105 79 137 5.0 18.0 0.00 0.00 0.00 37 1008.5
20260505225105 79 119 5.0 15.0 0.00 0.00 0.00 37 1008.6
20260505224105 80 150 4.0 12.0 0.00 0.00 0.00 37 1008.7
20260505223605 80 169 4.0 12.0 0.00 0.00 0.00 37 1008.7
20260505223104 80 117 3.0 12.0 0.00 0.00 0.00 37 1008.7
20260505222605 81 176 4.0 10.0 0.00 0.00 0.00 37 1008.7
20260505222105 81 175 6.0 12.0 0.00 0.00 0.00 37 1008.6
20260505221605 81 153 6.0 13.0 0.00 0.00 0.00 36 1008.6
20260505221104 81 191 5.0 17.0 0.00 0.00 0.00 36 1008.5
20260505220605 82 126 5.0 13.0 0.00 0.00 0.00 36 1008.5
20260505220105 82 121 3.0 14.0 0.00 0.00 0.00 35 1008.4
20260505215605 82 152 6.0 14.0 0.00 0.00 0.00 35 1008.6
20260505215105 83 153 3.0 8.0 0.00 0.00 0.00 35 1008.5
20260505214604 83 194 4.0 12.0 0.00 0.00 0.00 35 1008.5
20260505214105 83 124 6.0 13.0 0.00 0.00 0.00 34 1008.4
20260505213604 83 157 3.0 14.0 0.00 0.00 0.00 34 1008.3
20260505213105 83 132 5.0 12.0 0.00 0.00 0.00 33 1008.2
20260505212605 83 166 7.0 15.0 0.00 0.00 0.00 33 1008.2
20260505212105 84 137 4.0 9.0 0.00 0.00 0.00 32 1008.2
20260505211604 84 142 5.0 12.0 0.00 0.00 0.00 32 1008.1
20260505211105 83 149 7.0 13.0 0.00 0.00 0.00 31 1008.0
20260505210605 84 121 4.0 10.0 0.00 0.00 0.00 32 1008.0
20260505210105 84 144 5.0 8.0 0.00 0.00 0.00 31 1008.1
20260505205604 84 144 4.0 15.0 0.00 0.00 0.00 32 1008.0
20260505205106 84 128 6.0 14.0 0.00 0.00 0.00 31 1008.0
20260505204604 84 185 5.0 16.0 0.00 0.00 0.00 32 1007.8
20260505204105 84 150 5.0 10.0 0.00 0.00 0.00 32 1007.9
20260505203605 85 135 4.0 13.0 0.00 0.00 0.00 31 1007.9
20260505203105 84 183 3.0 10.0 0.00 0.00 0.00 32 1007.8
20260505202105 84 118 8.0 18.0 0.00 0.00 0.00 31 1007.8
20260505201606 84 151 5.0 17.0 0.00 0.00 0.00 32 1007.9
20260505201104 84 137 5.0 17.0 0.00 0.00 0.00 32 1007.9
20260505200605 85 170 5.0 17.0 0.00 0.00 0.00 32 1008.0
20260505200104 85 207 4.0 16.0 0.00 0.00 0.00 34 1007.9
20260505195605 85 180 4.0 13.0 0.00 0.00 0.00 35 1008.0
20260505195105 85 167 3.0 14.0 0.00 0.00 0.00 35 1008.1
20260505194604 84 147 5.0 14.0 0.00 0.00 0.00 34 1008.1
20260505194105 85 100 3.0 10.0 0.00 0.00 0.00 35 1008.2
20260505193605 85 146 6.0 15.0 0.00 0.00 0.00 34 1008.3
20260505193105 84 158 3.0 13.0 0.00 0.00 0.00 35 1008.3
20260505192606 84 182 5.0 12.0 0.00 0.00 0.00 35 1008.3
20260505192104 84 197 4.0 10.0 0.00 0.00 0.00 35 1008.3
20260505191605 84 184 5.0 14.0 0.00 0.00 0.00 35 1008.3
20260505191104 84 157 4.0 12.0 0.00 0.00 0.00 36 1008.5
20260505190605 84 124 4.0 12.0 0.00 0.00 0.00 35 1008.5
20260505190104 85 132 5.0 17.0 0.00 0.00 0.00 36 1008.7
20260505185605 84 124 5.0 14.0 0.00 0.00 0.00 35 1008.7
20260505184604 84 145 3.0 12.0 0.00 0.00 0.00 37 1008.9
20260505184105 84 169 3.0 9.0 0.00 0.00 0.00 36 1009.0
20260505183604 84 178 5.0 12.0 0.00 0.00 0.00 36 1008.9
20260505182605 84 209 4.0 10.0 0.00 0.00 0.00 36 1009.0
20260505182104 83 155 6.0 16.0 0.00 0.00 0.00 37 1009.1
20260505181104 83 170 2.0 10.0 0.00 0.00 0.00 39 1009.2
20260505180605 83 128 5.0 14.0 0.00 0.00 0.00 38 1009.3
20260505180105 83 146 4.0 10.0 0.00 0.00 0.00 37 1009.4
20260505175605 84 189 3.0 7.0 0.00 0.00 0.00 37 1009.6
20260505175104 84 141 3.0 12.0 0.00 0.00 0.00 38 1009.5
20260505174605 84 128 5.0 12.0 0.00 0.00 0.00 37 1009.5
20260505174105 83 127 3.0 12.0 0.00 0.00 0.00 38 1009.6
20260505173604 83 136 5.0 10.0 0.00 0.00 0.00 37 1009.6
20260505173105 84 216 4.0 8.0 0.00 0.00 0.00 37 1009.7
20260505172604 83 146 2.0 12.0 0.00 0.00 0.00 39 1009.7
20260505172104 83 83 2.0 8.0 0.00 0.00 0.00 39 1009.7
20260505171104 83 150 3.0 7.0 0.00 0.00 0.00 38 1009.8
20260505170604 83 111 3.0 12.0 0.00 0.00 0.00 38 1010.0
20260505165605 83 101 2.0 8.0 0.00 0.00 0.00 39 1009.9
20260505164604 82 174 2.0 3.0 0.00 0.00 0.00 40 1009.9
20260505164105 82 119 3.0 12.0 0.00 0.00 0.00 40 1009.9
20260505163604 82 105 2.0 8.0 0.00 0.00 0.00 40 1010.0
20260505163105 82 196 2.0 8.0 0.00 0.00 0.00 40 1010.0
20260505162604 82 112 3.0 7.0 0.00 0.00 0.00 40 1010.0
20260505161105 81 170 3.0 8.0 0.00 0.00 0.00 42 1010.2
20260505160604 81 196 3.0 9.0 0.00 0.00 0.00 41 1010.3
20260505160105 82 197 3.0 6.0 0.00 0.00 0.00 40 1010.4
20260505151606 78 28 2.0 3.0 0.00 0.00 0.00 42 1010.7
20260505151105 78 150 2.0 6.0 0.00 0.00 0.00 43 1010.7
20260505150105 78 148 2.0 7.0 0.00 0.00 0.00 45 1010.8
20260505140605 74 177 2.0 7.0 0.00 0.00 0.00 48 1011.2
20260505140105 74 211 2.0 3.0 0.00 0.00 0.00 48 1011.2
20260505130105 70 151 3.0 9.0 0.00 0.00 0.00 53 1011.1
20260505124606 68 197 1.0 7.0 0.00 0.00 0.00 55 1011.0
20260505124105 68 230 2.0 6.0 0.00 0.00 0.00 55 1011.1
20260505123605 67 64 3.0 6.0 0.00 0.00 0.00 56 1011.1
20260505123105 66 253 1.0 9.0 0.00 0.00 0.00 57 1011.1
20260505122605 66 179 1.0 7.0 0.00 0.00 0.00 58 1011.1
20260505122104 65 183 2.0 7.0 0.00 0.00 0.00 59 1011.1
20260505121605 65 218 1.0 7.0 0.00 0.00 0.00 60 1011.1
20260505121105 65 142 2.0 7.0 0.00 0.00 0.00 60 1011.0
20260505120604 64 157 0.0 6.0 0.00 0.00 0.00 61 1011.1
20260505120105 64 187 2.0 7.0 0.00 0.00 0.00 62 1011.1
20260505115605 64 147 2.0 9.0 0.00 0.00 0.00 63 1011.0
20260505115105 63 110 2.0 6.0 0.00 0.00 0.00 63 1011.0
20260505114605 63 214 1.0 3.0 0.00 0.00 0.00 64 1011.0
20260505114105 63 185 3.0 6.0 0.00 0.00 0.00 64 1010.8
20260505113605 63 84 1.0 7.0 0.00 0.00 0.00 64 1010.8
20260505112605 62 171 1.0 5.0 0.00 0.00 0.00 65 1010.6
20260505111605 62 172 1.0 5.0 0.00 0.00 0.00 66 1010.6
20260505110605 61 142 2.0 6.0 0.00 0.00 0.00 67 1010.7
20260505110105 61 155 0.0 2.0 0.00 0.00 0.00 67 1010.6
20260505101605 61 187 0.0 3.0 0.00 0.00 0.00 69 1010.3
20260505101104 61 211 1.0 3.0 0.00 0.00 0.00 69 1010.3
20260505100605 61 135 1.0 6.0 0.00 0.00 0.00 69 1010.2
20260505100105 61 189 1.0 3.0 0.00 0.00 0.00 69 1010.3
20260505094605 62 142 1.0 3.0 0.00 0.00 0.00 68 1010.2
20260505094105 62 104 1.0 3.0 0.00 0.00 0.00 68 1010.1
20260505093104 62 135 2.0 6.0 0.00 0.00 0.00 67 1010.2
20260505092105 62 116 0.0 3.0 0.00 0.00 0.00 67 1010.2
20260505091605 62 115 2.0 3.0 0.00 0.00 0.00 67 1010.2
20260505091105 62 120 1.0 3.0 0.00 0.00 0.00 67 1010.2
20260505090605 63 125 2.0 6.0 0.00 0.00 0.00 67 1010.2
20260505090104 63 192 2.0 8.0 0.00 0.00 0.00 66 1010.0
20260505084104 62 194 2.0 6.0 0.00 0.00 0.00 66 1010.1
20260505083604 62 127 1.0 5.0 0.00 0.00 0.00 66 1010.1
20260505083105 62 173 2.0 6.0 0.00 0.00 0.00 66 1010.1
20260505082605 62 203 2.0 3.0 0.00 0.00 0.00 67 1010.2
20260505082105 62 159 1.0 3.0 0.00 0.00 0.00 67 1010.1
20260505081605 62 125 1.0 5.0 0.00 0.00 0.00 67 1010.0
20260505081105 61 200 2.0 3.0 0.00 0.00 0.00 67 1009.9
20260505080605 61 177 1.0 2.0 0.00 0.00 0.00 67 1010.0
20260505080104 61 133 1.0 5.0 0.00 0.00 0.00 67 1010.0
20260505075604 61 116 2.0 5.0 0.00 0.00 0.00 68 1009.9
20260505075104 61 156 1.0 3.0 0.00 0.00 0.00 67 1010.0
20260505074604 61 132 1.0 3.0 0.00 0.00 0.00 67 1010.0
20260505074104 61 152 1.0 3.0 0.00 0.00 0.00 67 1009.9
20260505073604 61 147 1.0 5.0 0.00 0.00 0.00 67 1010.0
20260505073104 61 150 1.0 3.0 0.00 0.00 0.00 67 1010.0
20260505072604 61 132 0.0 5.0 0.00 0.00 0.00 67 1010.0
20260505072104 61 145 1.0 3.0 0.00 0.00 0.00 67 1010.0
20260505071604 61 119 1.0 3.0 0.00 0.00 0.00 67 1009.9
20260505071105 61 73 0.0 5.0 0.00 0.00 0.00 67 1009.9
20260505070605 61 123 1.0 3.0 0.00 0.00 0.00 67 1009.9
20260505070104 61 107 1.0 3.0 0.00 0.00 0.00 67 1009.9